Temp
13 13 13 13 13 13 14 14 14 14 14 14 14 15 15 15 15 15 15 15 15 15 15 15 15 15 14 14 14 14 14 14 14 14 14 14 14 14 14 14 14 14 14 15 15 16 17 17 18 18 18 18 18 18 17 17 17 18 18 18 18 18 18 18 18 18 18 18 18
13 13 13 13 13 14 14 14 14 14 14 14 14 15 15 15 15 15 15 15 15 15 15 15 15 14 14 14 14 14 14 14 14 14 14 14 14 14 14 14 14 14 14 15 15 15 16 17 17 17 17 17 17 17 17 17 17 17 17 17 18 18 18 18 18 18 18 18 18
13 13 13 13 13 14 14 14 14 14 14 14 14 15 15 15 15 15 15 15 15 15 15 15 15 14 14 14 14 14 14 14 14 14 14 14 14 14 14 14 14 14 14 14 14 15 15 16 17 17 17 17 17 17 17 17 17 17 17 17 18 18 18 18 18 18 18 18 18
13 13 13 13 13 14 14 14 14 14 14 14 14 15 15 15 15 15 15 15 15 15 15 15 15 14 14 14 14 14 14 14 14 14 14 14 14 14 14 13 13 13 14 14 14 14 15 16 17 17 17 17 17 17 17 17 17 17 17 17 17 18 18 18 18 18 18 18 18
13 13 13 13 13 14 14 14 14 14 14 14 14 14 14 15 15 15 15 15 15 15 15 15 15 15 14 14 14 14 14 14 14 14 14 14 14 14 14 14 13 14 14 14 14 15 16 16 17 17 17 17 17 17 17 17 17 17 17 17 17 18 18 18 18 18 18 18 18
13 13 13 13 14 14 14 14 14 14 14 14 14 14 14 15 15 14 14 15 15 15 15 15 15 15 14 14 14 14 14 14 14 14 14 14 14 14 14 14 14 14 14 15 15 16 16 17 17 17 17 17 17 17 17 17 17 17 17 17 17 18 18 18 18 18 18 18 18
13 13 13 14 14 14 14 14 14 14 14 14 14 14 14 15 14 14 15 15 15 15 15 15 15 15 14 14 14 14 14 14 14 14 14 14 14 14 14 14 15 15 15 16 16 16 16 16 17 16 17 17 17 17 17 17 17 17 17 17 17 17 18 18 18 18 18 18 17
13 13 13 14 14 14 14 14 14 14 14 14 14 14 14 15 15 15 15 15 15 15 15 15 15 15 15 14 14 14 14 14 14 14 14 14 14 14 15 15 15 16 16 16 16 16 16 16 16 16 16 16 16 17 17 17 17 17 17 17 17 17 17 17 18 18 18 18 17
13 13 13 14 14 14 14 14 14 14 14 14 14 14 14 14 15 15 15 15 15 15 15 15 15 15 15 15 14 14 14 14 14 14 14 14 14 15 15 15 16 16 16 16 16 16 16 16 16 16 16 16 16 16 17 17 17 17 17 17 17 17 17 17 17 18 18 17 17
13 13 13 14 14 14 14 14 14 14 14 14 14 14 14 14 14 15 15 15 15 15 15 15 15 14 14 14 14 14 14 14 14 14 14 14 14 14 15 15 15 15 15 15 15 15 16 16 16 16 16 16 16 16 16 16 16 17 17 17 17 17 17 17 17 17 17 17 17
13 13 14 14 14 14 14 14 14 14 14 14 14 14 14 14 14 14 14 15 15 15 15 15 15 14 14 14 14 14 14 14 14 14 14 14 14 14 14 15 14 14 14 14 14 15 15 15 15 16 16 16 16 16 16 16 16 16 16 16 16 16 16 16 16 17 17 17 17
13 13 14 14 14 14 14 14 14 14 14 14 14 14 14 14 14 14 14 14 14 15 15 15 15 15 14 14 14 14 14 14 14 14 14 14 14 14 14 14 14 14 14 14 14 14 15 15 15 15 15 15 15 16 16 16 16 16 16 16 16 16 16 16 16 16 16 16 17
13 14 14 14 14 14 14 14 14 14 14 14 14 14 14 14 14 14 14 14 14 14 14 15 15 15 15 14 14 14 14 14 14 14 14 14 14 14 14 14 14 14 14 14 14 14 14 15 15 15 15 15 15 15 15 16 15 15 15 15 15 15 16 15 15 16 16 16 16
13 14 14 14 14 14 14 14 14 14 14 14 14 14 14 14 14 14 14 14 14 14 14 14 14 14 14 14 14 14 14 14 14 14 14 14 14 14 14 14 14 14 14 14 14 14 14 15 15 15 15 15 15 15 15 15 15 15 15 15 15 15 15 15 15 15 16 16 15
14 14 14 14 14 14 14 14 14 14 14 14 14 14 14 14 14 14 14 14 14 14 14 14 14 14 14 14 14 14 14 14 14 14 14 14 14 14 14 14 14 14 14 14 14 14 14 15 15 15 15 15 15 15 15 15 15 15 15 15 15 15 15 15 15 15 15 15 15
14 14 14 14 14 14 14 14 14 14 14 14 14 14 14 14 14 14 14 14 14 14 14 14 14 14 14 14 14 14 14 14 14 14 14 14 14 14 14 14 14 14 14 14 14 14 14 15 15 15 15 15 15 15 15 15 15 15 15 15 15 15 14 15 15 15 15 15 15
14 14 14 14 14 14 14 14 14 14 14 14 14 14 14 14 14 14 14 14 14 14 14 14 14 14 14 14 14 14 14 14 14 14 14 14 14 14 14 14 14 14 14 14 14 14 14 14 15 15 15 15 15 15 15 14 14 14 14 14 14 14 14 14 15 15 15 15 15
14 14 14 14 14 14 14 14 14 14 14 14 14 14 14 14 14 14 14 14 14 14 14 14 14 14 14 14 14 14 14 14 14 14 14 14 14 14 14 14 14 14 14 14 14 14 14 14 14 14 14 15 15 15 14 14 14 14 14 14 14 15 15 14 14 14 14 14 14
14 14 14 14 14 14 14 14 14 14 14 14 14 14 14 14 14 14 14 14 14 14 14 14 14 14 14 14 14 14 14 14 14 14 14 14 14 14 14 14 14 14 14 14 14 14 14 14 14 14 14 14 14 14 14 14 14 14 14 14 15 15 15 14 14 14 14 14 14
14 14 14 14 14 14 14 14 14 14 14 14 14 14 14 14 14 14 14 14 14 14 14 14 14 14 14 14 14 14 14 14 14 14 14 14 14 14 14 14 14 14 14 14 14 14 14 14 14 14 14 14 14 14 14 14 14 14 14 14 15 15 14 14 14 13 13 13 13
14 14 14 14 14 14 14 14 14 14 14 14 14 14 14 14 14 14 14 14 14 14 14 14 14 14 14 14 14 14 14 14 14 14 14 14 14 14 14 14 13 13 13 13 14 14 14 14 14 14 14 14 14 14 14 14 14 14 14 14 14 14 14 14 14 13 13 13 13
12 13 13 14 14 14 14 14 14 14 14 13 13 13 14 14 14 14 14 14 14 14 14 14 13 13 14 14 14 14 14 13 13 13 13 13 13 13 13 13 13 13 13 13 13 14 14 14 14 14 14 14 14 14 13 13 14 14 14 14 14 14 14 14 13 13 13 13 13
11 12 12 13 13 14 14 14 14 14 14 13 13 13 13 13 14 14 14 14 13 13 13 13 13 13 13 13 13 13 13 13 13 13 13 13 13 13 13 13 13 13 13 13 13 13 13 14 14 13 13 13 13 13 13 13 13 13 14 14 14 13 13 13 13 13 13 13 13
9 10 10 11 12 12 13 13 13 14 14 14 13 13 13 13 13 13 13 13 13 13 13 13 13 13 13 13 13 13 13 13 13 13 13 13 13 13 13 13 13 13 13 13 13 13 13 13 13 13 13 13 13 13 13 13 13 13 13 13 13 13 13 13 13 13 13 13 13
9 9 9 9 10 10 11 12 12 12 12 13 13 13 13 13 13 13 13 13 13 13 13 13 13 13 13 13 13 13 13 13 13 13 13 13 12 12 12 12 12 12 13 13 13 13 13 13 12 12 12 12 12 12 12 12 12 13 13 13 13 13 12 12 12 12 12 12 12
8 8 8 9 9 9 10 10 10 11 11 12 12 12 13 13 13 13 13 13 13 13 13 13 13 13 13 13 13 13 13 13 13 13 12 12 12 12 12 12 12 12 12 12 12 12 12 12 12 12 12 12 12 12 12 12 12 12 13 13 13 12 12 12 12 12 12 12 12
7 8 8 8 8 9 9 9 10 10 10 10 10 11 11 12 13 13 13 13 13 13 13 13 13 13 13 13 13 13 13 13 13 13 12 12 12 12 12 12 12 12 12 12 12 12 12 12 12 12 12 12 12 12 12 12 12 12 12 12 12 12 12 12 11 11 11 11 11
7 7 7 8 8 8 8 9 9 9 9 9 9 9 10 10 11 11 12 12 12 13 13 13 13 13 13 13 13 13 13 13 13 13 12 12 12 12 12 12 12 12 12 12 12 12 13 13 13 13 12 12 12 12 12 12 12 11 11 11 11 11 12 11 11 11 11 10 10
7 7 7 7 7 7 7 7 8 8 9 9 9 9 10 10 10 10 10 10 11 11 12 12 12 12 13 13 13 13 13 13 13 13 12 12 12 12 12 12 12 12 12 12 12 12 12 12 12 12 12 12 12 11 11 11 11 11 11 11 11 11 11 11 10 10 10 10 10
6 7 6 6 6 6 7 7 7 7 8 8 9 9 10 9 9 9 9 9 9 10 10 11 12 12 12 12 12 13 13 13 13 13 12 12 12 12 12 12 12 12 12 12 12 12 12 12 12 12 12 12 12 11 11 11 11 11 10 10 10 10 10 10 10 10 10 9 9
6 6 6 6 6 6 6 6 7 7 7 7 8 8 8 8 8 8 8 8 8 9 9 10 11 11 11 11 11 12 12 12 12 12 12 12 12 12 12 12 12 12 12 12 12 12 12 12 12 12 11 11 11 11 11 11 11 11 11 10 10 10 10 10 10 10 9 9 8
6 6 6 6 6 6 6 6 7 7 7 7 7 7 7 7 7 7 8 8 8 8 9 9 9 9 10 10 10 10 11 11 11 11 11 11 11 11 12 12 12 12 12 12 12 12 12 12 11 11 11 11 11 11 11 11 11 11 10 10 10 10 10 10 9 9 8 8 8
6 6 6 6 6 6 6 6 7 7 7 7 6 6 6 6 7 7 7 7 8 8 8 8 8 8 8 9 9 9 9 10 10 10 10 10 10 11 11 11 12 12 12 12 12 11 11 11 11 11 11 11 11 11 11 10 10 10 9 9 9 9 9 9 8 8 7 7 7
6 6 6 6 6 6 6 6 6 6 6 6 6 6 6 6 6 6 6 7 7 7 7 7 7 7 8 8 8 8 8 9 9 9 9 9 9 9 10 10 10 11 11 11 11 11 11 11 10 10 10 10 10 10 10 9 9 8 8 8 8 8 8 8 8 7 7 7 7
6 6 6 6 6 6 6 6 6 6 6 6 6 6 6 6 6 6 6 6 6 6 7 7 7 7 7 7 8 8 8 8 8 8 8 8 8 8 8 8 9 9 10 10 10 10 10 10 10 9 9 9 9 9 8 8 8 7 7 7 7 7 7 7 7 7 7 7 8
5 5 5 5 5 6 6 6 6 6 6 6 6 6 6 6 5 6 6 6 6 6 6 6 6 6 6 7 7 7 7 7 7 7 7 7 7 7 7 7 7 8 8 8 9 9 9 8 8 8 8 8 8 8 8 8 7 7 7 7 7 7 7 7 7 7 7 7 8
5 5 5 5 5 5 5 6 6 5 5 5 5 5 6 6 6 6 6 6 6 6 6 6 6 6 6 6 6 6 6 7 7 7 7 7 7 7 7 7 7 7 7 7 7 7 7 7 7 8 8 8 7 7 7 7 7 6 6 6 6 7 7 7 7 7 7 7 7
5 5 5 5 5 5 5 5 5 5 5 5 5 5 6 6 6 6 6 6 6 6 6 6 6 6 6 6 6 6 6 6 6 6 6 6 6 6 6 6 6 6 6 6 6 6 6 7 7 7 7 7 7 7 6 6 6 6 6 6 6 6 6 6 7 6 6 6 6
6 6 6 5 5 5 6 5 5 5 5 5 5 5 6 6 5 5 6 6 6 6 5 5 5 5 6 6 6 6 6 6 6 6 6 6 6 6 6 6 5 5 6 6 6 6 6 6 6 6 7 7 7 6 6 6 6 6 6 6 6 6 6 6 6 6 6 6 6
6 6 6 6 6 5 5 5 5 5 5 5 5 5 5 5 5 5 6 6 6 5 5 5 5 5 6 6 5 5 5 5 5 6 6 6 6 6 5 5 5 5 5 5 6 6 6 6 6 6 6 7 6 6 6 6 5 5 5 5 5 5 5 5 5 5 5 5 5
5 6 6 6 6 6 5 5 5 5 5 5 5 5 5 5 5 6 6 6 6 5 5 5 5 5 5 5 5 5 5 5 5 5 5 5 6 6 6 5 5 5 5 5 6 6 6 6 6 6 6 6 6 6 6 6 5 5 4 4 4 4 4 4 4 4 4 4 4
Height
674 675 676 676 677 678 678 679 679 679 680 680 681 681 682 682 682 681 680 680 680 682 684 687 690 693 696 699 701 704 707 711 713 716 718 720 722 725 727 730 733 736 739 741 744 747 749 749 750 751 752 753 755 756 757 759 760 761 763 765 766 768 770 771 772 774 775 776 776
671 672 673 674 675 676 676 677 677 677 678 678 679 680 680 680 680 680 679 678 679 681 683 686 690 693 696 699 701 704 707 710 713 715 718 720 722 724 727 730 733 736 739 741 743 746 747 748 748 750 751 752 753 755 756 757 758 760 761 763 765 766 768 770 771 772 774 775 776
669 670 671 672 673 673 674 674 675 675 676 677 677 678 678 678 679 678 677 677 678 680 682 686 689 692 695 698 701 705 707 710 712 715 717 720 722 724 727 730 732 735 737 739 742 744 746 746 747 748 749 751 752 753 755 756 757 758 760 761 763 765 767 769 771 772 773 774 774
667 667 668 669 670 671 671 671 672 673 674 675 676 676 676 676 676 676 676 676 677 679 682 685 689 692 696 699 702 705 707 709 712 714 717 719 721 724 726 729 731 734 736 738 740 743 745 746 746 747 748 749 751 752 753 755 756 757 758 760 762 764 766 768 770 771 772 772 773
664 665 666 666 667 668 669 669 670 671 672 673 674 674 674 674 675 676 676 676 677 679 681 685 689 693 696 699 702 705 707 710 712 714 717 719 721 723 726 728 731 733 735 738 741 743 745 746 746 746 747 748 749 751 752 753 754 756 757 759 761 763 766 767 769 770 771 771 772
662 663 664 665 666 666 666 667 668 670 671 672 672 672 672 673 674 674 674 675 676 679 682 685 689 693 697 700 703 706 708 710 712 714 716 719 721 723 726 729 731 733 736 739 741 743 744 744 745 745 746 747 748 749 750 751 752 754 755 758 760 762 765 766 768 768 769 770 771
661 661 662 663 664 664 664 665 667 668 670 670 670 670 671 672 672 673 673 674 677 680 682 686 690 694 697 701 704 706 708 710 712 714 716 718 721 723 726 729 731 734 736 739 741 742 742 743 743 744 745 746 747 748 749 749 750 752 754 756 759 762 764 765 766 767 768 768 769
659 660 661 661 661 661 662 663 665 667 668 669 668 669 670 671 672 672 673 675 677 680 683 686 690 693 696 700 703 706 707 709 711 713 715 717 720 722 725 727 730 733 735 737 739 740 740 741 741 742 743 744 745 746 747 747 749 751 753 756 758 761 762 764 765 765 766 766 767
657 658 659 659 659 660 660 662 664 665 666 667 667 668 669 670 671 672 674 675 677 680 683 686 689 692 695 698 701 703 705 707 709 711 714 716 718 721 723 726 728 731 733 735 736 738 739 739 740 741 741 742 743 744 745 746 748 750 753 755 757 760 761 762 763 764 764 764 765
656 657 658 658 657 658 659 661 662 664 665 666 666 668 669 671 672 674 675 676 678 681 683 686 688 691 694 696 698 700 702 705 707 710 712 715 717 719 721 724 726 729 731 732 734 736 737 737 738 739 740 740 741 742 743 745 747 750 752 754 756 758 759 761 761 762 762 762 763
654 655 656 656 656 656 657 659 661 663 664 665 666 668 670 671 673 675 676 678 680 681 684 686 688 691 693 696 697 699 701 703 705 707 711 714 716 718 720 722 724 726 728 730 732 733 734 735 736 737 738 739 740 741 742 744 746 749 751 753 755 756 757 758 759 760 760 761 761
652 653 654 654 654 655 656 659 661 662 664 665 666 668 670 672 674 676 677 678 680 682 684 686 688 690 692 695 697 698 700 702 704 706 709 712 715 717 719 720 722 724 726 728 730 731 732 733 734 735 736 737 738 740 741 743 745 747 749 751 753 754 755 756 757 758 758 759 760
651 652 652 652 653 654 656 658 661 662 664 665 666 668 671 673 675 676 677 678 680 682 684 686 688 690 692 694 696 698 700 702 703 706 708 711 714 716 718 719 721 723 725 726 728 729 730 731 731 733 734 735 736 738 740 741 744 746 748 749 751 752 753 754 755 756 756 757 758
650 650 650 651 652 654 656 658 660 662 663 665 666 668 671 673 675 676 677 678 680 682 684 686 688 690 691 693 695 697 699 701 703 706 708 711 712 714 716 718 720 721 723 724 726 726 727 729 730 731 732 734 735 736 738 740 742 744 746 747 749 751 751 752 753 754 755 756 757
648 649 649 650 652 654 656 658 660 661 663 664 666 668 670 672 674 675 677 678 680 682 684 686 688 689 691 692 694 696 698 700 703 705 707 709 711 713 715 716 718 719 721 722 724 725 726 727 728 730 731 732 734 735 737 739 741 743 744 746 747 749 750 751 752 753 754 755 756
647 647 649 651 652 654 656 657 659 661 662 664 666 668 670 672 673 675 677 678 680 682 684 685 687 689 690 692 693 695 697 699 701 703 706 708 710 711 713 715 716 718 719 721 722 723 725 726 727 729 730 732 733 735 736 738 740 742 743 745 746 747 749 750 750 751 752 753 755
645 646 648 650 652 654 656 657 659 661 662 664 666 668 670 672 674 675 677 678 680 681 683 685 686 688 690 691 693 694 696 698 700 702 704 706 708 710 712 713 715 716 717 719 721 722 723 725 726 728 729 731 732 734 736 737 739 741 743 744 745 746 747 748 749 750 751 752 753
645 646 648 650 652 654 656 658 660 661 663 664 666 668 670 672 674 675 676 678 679 681 683 684 686 687 689 691 692 694 695 697 699 701 703 705 706 708 710 711 713 715 716 718 720 721 722 724 725 727 729 731 732 734 735 737 739 741 742 743 744 745 746 746 748 749 750 751 753
645 647 649 651 652 654 656 658 660 661 663 665 666 668 670 672 674 675 676 678 679 681 682 684 686 687 689 691 692 694 695 697 698 700 702 704 706 707 709 711 712 714 716 717 718 720 721 723 724 726 728 730 732 733 735 737 738 740 741 742 742 743 744 745 747 748 750 751 752
646 648 649 651 652 654 656 657 660 661 664 665 667 668 670 672 673 675 676 678 679 681 682 683 685 687 689 691 692 694 695 697 698 700 702 703 705 706 708 710 711 713 715 716 717 719 720 722 723 725 727 729 731 733 735 736 738 739 739 740 741 741 742 744 745 747 749 751 751
647 649 650 651 653 655 656 658 660 661 664 666 667 668 670 671 673 675 676 677 679 680 682 683 685 686 688 690 692 694 695 697 698 700 701 702 704 705 707 708 710 711 713 715 716 718 719 720 722 723 725 727 730 732 734 736 737 737 737 738 739 740 741 742 744 746 748 749 751
650 651 651 653 654 656 657 658 660 662 664 666 668 669 669 670 672 674 675 677 678 680 681 683 684 686 687 689 691 692 694 696 697 699 700 701 703 704 706 707 709 710 711 713 715 716 717 719 720 722 723 725 727 730 732 734 735 735 735 736 737 738 740 741 743 745 746 748 749
651 651 652 654 655 657 659 660 661 663 665 666 668 669 669 670 671 673 675 676 678 679 681 682 683 684 686 687 689 691 693 695 696 698 699 700 702 703 705 706 707 709 710 711 712 714 715 717 719 720 722 723 725 727 729 731 732 732 733 734 736 737 739 740 742 743 745 746 748
653 654 655 655 656 657 659 661 662 664 666 667 669 670 670 670 671 673 675 676 677 679 680 681 682 684 685 687 688 690 692 693 695 697 698 700 701 703 704 705 707 708 709 710 711 712 713 715 717 719 721 722 723 725 726 728 730 731 731 733 735 736 738 739 741 742 744 746 747
656 657 658 658 658 658 659 660 662 664 666 668 669 670 670 671 672 673 675 676 677 678 680 681 682 683 685 686 688 689 691 692 694 696 698 700 701 702 704 705 706 707 708 709 710 711 712 713 715 717 719 721 722 723 725 726 728 729 730 731 733 735 737 738 740 741 743 745 746
659 660 660 661 660 660 661 662 663 665 666 668 670 671 671 672 673 674 675 676 678 679 680 681 682 683 685 686 688 689 691 692 694 696 698 699 700 701 703 704 706 707 708 709 710 711 712 713 715 716 717 719 720 722 723 725 727 728 730 731 732 734 735 737 738 740 742 743 745
662 662 663 662 662 663 664 665 666 668 669 671 671 671 672 673 674 675 676 678 679 680 681 682 683 684 685 686 688 689 691 692 694 696 697 698 699 700 702 703 705 706 707 708 709 710 712 714 715 716 717 718 720 721 722 724 726 728 729 731 732 733 734 736 737 738 740 742 743
666 666 666 666 666 667 668 668 670 671 673 674 674 674 674 674 675 676 678 679 681 682 683 684 684 685 686 687 688 689 691 692 694 696 696 697 698 700 701 702 704 705 706 707 708 709 711 713 715 716 718 719 719 720 721 723 725 727 729 730 731 732 733 734 735 736 738 740 741
671 671 671 671 671 672 673 673 674 675 676 677 677 677 676 676 677 678 679 681 682 683 684 685 685 686 686 687 688 689 691 692 694 695 696 698 699 700 701 702 703 704 705 706 707 708 710 712 714 716 717 718 719 720 721 722 724 726 728 729 730 731 732 733 734 735 736 738 740
675 675 675 676 676 677 677 678 679 679 680 680 680 680 679 680 680 681 682 683 684 684 685 686 686 686 687 687 688 689 691 692 693 694 696 697 698 700 700 701 702 703 704 705 706 707 709 711 713 715 716 717 718 719 721 722 723 725 726 728 729 730 731 731 732 734 735 737 739
679 679 679 680 680 681 681 682 682 682 682 683 683 683 683 684 684 685 685 686 686 686 686 687 687 688 688 688 689 690 691 692 693 694 695 696 697 698 699 700 701 702 703 704 706 707 708 710 712 713 715 716 717 718 720 721 722 724 725 726 728 729 730 731 732 733 735 736 739
683 683 683 683 684 684 685 685 685 685 685 685 686 686 686 687 688 689 689 689 689 689 689 689 689 689 690 690 691 691 691 692 693 694 695 696 697 698 699 700 701 701 703 704 705 707 708 709 711 712 714 715 716 717 719 720 722 723 725 726 727 728 729 731 732 733 735 736 738
687 687 687 687 687 688 688 688 688 688 688 688 688 689 689 690 691 691 691 692 692 692 691 691 691 691 691 691 692 692 693 693 694 695 696 696 697 697 698 699 700 702 703 704 705 706 707 709 710 711 713 714 716 717 718 720 721 723 724 725 726 727 729 730 731 733 734 736 738
690 690 690 690 691 691 691 691 690 690 690 690 691 691 692 692 693 693 694 694 694 694 694 694 694 694 694 694 694 694 694 694 695 696 696 697 697 698 698 699 701 702 703 704 706 706 707 708 710 711 712 714 715 716 718 719 721 722 724 725 726 727 728 730 731 733 734 736 737
693 693 693 693 693 693 693 692 692 692 692 692 693 693 694 694 695 695 696 696 696 695 695 696 696 696 696 696 696 696 696 696 696 697 697 698 698 699 700 701 701 702 704 705 706 706 707 708 709 711 712 713 715 716 718 719 721 722 723 724 726 727 728 730 731 733 734 736 737
697 696 696 696 696 695 695 695 694 694 694 694 695 695 696 696 696 697 697 697 696 696 697 697 698 698 698 698 698 698 697 697 698 698 699 699 700 701 701 702 703 704 705 706 706 707 708 708 709 710 711 713 715 716 718 719 721 722 723 725 726 727 728 730 731 733 734 736 737
701 700 700 699 699 698 698 697 697 697 697 697 697 697 698 698 698 698 698 698 698 698 699 699 699 700 700 700 700 700 699 699 699 700 700 701 701 702 703 704 705 706 706 707 707 708 709 709 710 711 712 713 714 716 717 719 721 722 724 725 726 727 728 730 731 733 734 736 737
704 703 703 702 702 701 701 700 700 700 700 700 700 701 701 701 701 701 701 701 701 701 701 701 701 701 702 702 702 702 701 701 701 701 701 702 703 704 704 705 706 707 707 708 709 709 710 710 711 711 712 713 714 716 717 719 721 722 724 725 726 728 729 731 732 733 734 736 737
708 707 706 706 705 705 704 704 703 704 704 704 704 703 703 703 703 704 704 703 703 703 703 703 704 704 704 704 704 704 704 704 703 703 703 704 705 705 706 706 707 708 709 709 709 710 710 711 711 712 712 713 715 716 718 719 721 723 724 726 727 729 730 731 732 734 735 736 737
711 710 709 709 708 708 707 707 707 707 707 707 707 706 706 706 706 706 706 706 706 706 706 706 706 706 706 706 706 706 706 706 706 706 706 706 706 707 707 708 709 709 710 710 710 711 711 711 712 712 713 714 715 717 718 720 721 723 725 726 727 729 731 732 733 734 735 736 738
713 713 712 711 711 711 710 710 710 710 710 710 709 709 709 709 709 709 709 708 708 708 708 708 708 708 708 708 708 708 709 709 708 708 708 707 708 708 709 709 710 711 711 711 711 712 712 713 713 714 714 715 716 718 719 720 722 723 725 726 728 729 730 731 733 734 735 736 737
Wind_Speed
31 30 29 28 27 27 28 29 29 28 27 26 26 27 29 30 28 25 25 28 31 31 31 31 31 32 33 35 38 39 38 35 34 36 38 38 37 38 39 39 39 40 40 41 41 41 39 38 37 37 37 37 37 38 38 39 39 38 37 37 36 35 34 33 33 33 34 34 35
31 31 31 30 29 29 29 29 29 29 28 27 27 28 30 30 28 26 25 28 31 33 33 33 33 34 35 37 38 40 39 36 35 36 37 38 37 38 38 36 37 39 42 44 43 40 38 36 36 36 36 36 36 36 37 38 39 38 37 37 37 36 35 34 33 34 35 35 36
30 31 31 32 31 30 29 29 29 29 28 28 28 29 30 29 26 25 25 29 32 34 35 34 34 35 36 37 39 40 40 38 36 35 35 36 36 36 35 33 33 36 40 42 42 40 37 36 36 36 35 35 35 35 36 37 37 37 37 37 37 36 35 34 34 35 35 35 36
29 29 30 32 32 30 30 30 29 28 28 28 28 29 29 28 26 25 26 30 33 35 36 37 36 36 36 36 38 39 39 38 37 35 34 34 34 34 32 30 30 32 35 38 40 40 39 37 36 35 35 35 35 35 35 36 36 36 36 36 36 36 36 36 35 35 35 36 36
28 28 29 30 31 31 31 31 29 28 28 28 28 27 28 28 27 26 28 31 33 35 38 39 39 36 35 35 37 37 36 36 36 36 35 34 33 32 30 28 28 30 33 36 40 42 41 39 37 36 35 35 35 36 36 36 35 35 35 35 35 36 36 37 37 36 36 36 36
26 28 29 30 31 32 33 32 30 29 27 27 27 27 28 28 26 27 30 33 35 36 39 40 39 36 34 35 35 35 34 34 35 36 36 35 34 33 31 29 29 31 35 38 41 42 41 39 37 36 35 35 35 36 36 36 35 34 34 34 35 36 37 38 38 37 37 36 36
27 28 30 31 31 32 33 32 31 29 28 27 27 27 28 27 26 27 31 35 37 37 38 39 38 37 36 36 35 34 33 33 35 36 36 36 36 36 35 33 33 34 37 39 40 40 39 38 37 36 36 35 35 35 35 35 34 34 34 34 35 37 38 38 39 38 37 37 37
27 29 31 32 32 32 32 32 31 30 28 27 28 28 28 27 25 27 31 35 37 38 39 39 40 40 40 38 37 36 35 35 35 36 36 37 38 38 38 37 37 36 37 37 37 37 37 38 37 37 36 36 35 35 35 35 35 35 35 36 37 38 39 39 39 38 38 38 37
25 29 31 32 32 32 32 32 31 30 28 28 28 28 28 27 26 26 29 32 36 38 39 39 41 42 42 41 40 39 38 38 38 38 38 39 40 40 40 40 39 39 38 37 36 36 37 38 38 38 37 36 35 35 35 35 35 36 36 37 38 38 39 39 38 38 38 38 37
25 28 30 30 31 32 32 31 31 30 28 28 28 28 27 27 27 27 28 30 34 37 38 38 39 40 40 40 40 40 40 40 41 41 41 41 41 42 41 41 42 43 42 40 37 37 37 38 38 37 37 37 36 36 36 36 36 37 38 38 38 38 38 38 38 38 38 37 37
25 28 29 29 29 30 31 30 30 28 27 27 28 27 27 26 27 28 29 30 32 34 36 36 37 38 38 38 38 39 40 40 41 42 43 42 42 42 43 44 45 45 44 41 38 37 37 37 37 37 36 36 37 37 37 37 37 37 38 38 38 38 38 37 37 37 37 37 36
26 28 28 28 28 29 30 30 28 26 26 27 28 28 27 26 27 29 30 30 32 33 35 36 37 38 37 37 37 38 38 38 39 41 41 42 42 42 43 44 45 45 43 41 39 37 37 37 37 36 36 36 36 37 37 38 37 37 37 37 37 37 37 37 37 36 36 36 35
28 28 27 26 27 27 28 29 28 26 25 26 28 28 27 27 27 28 29 31 32 33 34 35 37 38 38 38 38 38 38 37 37 38 39 40 40 41 42 43 43 43 43 42 40 39 38 37 37 37 36 36 36 37 37 38 38 37 37 37 36 36 36 36 36 36 35 34 33
29 28 26 25 25 26 27 28 27 25 25 26 27 28 28 27 27 28 29 30 32 33 34 34 36 38 39 39 39 39 39 38 37 37 39 40 40 39 40 40 41 42 42 42 42 41 39 38 38 37 37 36 36 37 37 38 38 38 38 37 36 36 35 35 35 35 34 33 31
29 27 27 26 24 25 26 26 26 25 25 26 27 27 27 27 27 28 29 30 31 32 33 34 35 36 38 39 39 40 40 39 39 39 39 40 39 39 39 39 40 41 41 41 41 41 41 40 39 38 37 37 36 36 37 38 38 39 39 38 37 35 34 34 34 34 32 31 30
27 26 26 25 25 25 25 25 24 24 25 25 26 27 27 27 27 28 29 30 31 32 32 33 34 34 35 36 38 39 39 39 40 40 40 40 39 39 39 39 39 40 40 40 40 40 41 41 40 39 38 37 37 37 37 37 38 38 38 37 36 35 33 33 33 33 32 31 31
25 25 25 23 26 26 25 24 23 23 24 25 26 26 27 27 27 29 30 31 31 31 32 33 33 33 33 33 35 37 38 38 39 39 39 39 39 40 40 39 39 39 39 39 38 38 39 39 39 39 38 38 37 37 37 38 38 37 37 36 35 34 32 31 31 31 31 31 31
25 24 23 24 26 27 26 25 24 23 24 24 25 26 27 27 28 28 30 31 31 31 32 32 33 33 32 32 33 35 37 37 38 38 39 39 40 40 40 40 40 39 39 39 38 37 37 38 38 38 38 38 38 38 38 38 37 36 35 34 33 32 31 29 28 28 28 29 30
23 23 22 22 24 26 27 27 25 25 24 25 26 27 28 28 28 28 29 30 31 32 32 32 33 33 33 33 34 34 36 37 38 38 39 39 40 40 40 40 39 39 39 38 38 38 37 38 38 38 37 37 38 38 37 36 35 33 31 30 29 29 28 27 26 26 26 26 27
23 23 22 21 22 23 25 27 27 26 26 25 27 28 29 29 29 29 29 30 31 32 32 33 33 33 34 34 34 35 35 37 38 38 38 39 39 39 39 39 39 38 38 38 38 38 38 38 38 38 38 37 37 36 34 32 30 29 28 26 25 25 25 25 25 25 26 26 25
19 20 20 20 20 21 23 26 28 28 26 25 26 28 30 31 31 31 31 31 31 32 33 33 34 34 35 35 35 35 35 36 37 38 38 38 38 38 38 39 38 38 38 38 39 39 39 39 39 39 38 37 36 33 30 28 27 26 25 24 23 23 23 23 23 24 25 25 26
10 11 14 17 19 20 21 24 27 27 25 23 23 25 29 31 32 32 32 32 32 33 33 34 34 35 35 36 36 36 36 35 36 37 37 37 37 37 37 37 37 38 38 39 39 39 39 39 39 38 37 35 33 31 29 27 26 25 24 23 22 22 23 23 23 23 24 25 26
20 15 12 12 15 17 18 20 22 23 22 20 19 21 25 29 31 31 32 32 32 33 33 34 34 34 35 36 37 37 36 35 34 35 35 35 35 35 34 34 35 35 36 37 37 37 37 37 36 35 34 33 31 30 30 28 27 26 25 24 23 24 24 25 24 24 24 24 25
29 26 23 20 17 17 16 16 16 16 16 17 16 17 19 23 26 26 27 28 29 30 31 32 33 33 33 34 35 36 36 35 33 31 31 30 30 29 29 30 30 31 32 34 34 35 34 34 33 33 32 32 31 31 31 30 29 28 27 26 26 26 26 26 25 25 25 25 25
32 31 30 28 26 24 21 20 18 16 14 13 13 14 15 18 20 20 21 22 24 25 27 28 29 29 29 29 30 31 33 33 31 28 26 26 26 26 26 26 26 27 29 30 31 32 33 32 32 32 32 32 31 31 32 31 31 30 29 28 28 27 27 26 26 26 26 26 26
33 33 32 31 31 29 27 25 22 19 16 14 13 13 13 15 16 16 17 18 20 22 23 25 25 25 25 25 25 26 27 28 27 26 25 25 24 24 25 26 26 27 28 29 30 32 32 31 32 32 32 32 32 32 31 32 32 31 30 29 29 28 27 27 26 26 26 25 25
34 33 33 33 33 32 30 28 25 22 19 16 15 14 14 14 14 15 15 16 17 19 21 22 23 23 23 23 23 23 23 24 25 25 25 25 25 25 25 26 28 28 29 30 31 33 33 32 32 32 32 31 31 31 30 30 31 30 30 29 29 28 27 27 26 26 25 25 24
34 34 34 34 33 32 31 29 27 24 22 19 18 16 15 15 14 14 14 14 15 17 18 20 21 22 23 23 23 23 23 24 25 25 26 26 26 26 27 28 29 30 30 31 31 32 32 32 32 32 31 30 29 29 30 30 30 30 30 29 28 27 26 26 25 24 24 24 23
34 34 34 34 32 31 30 29 27 25 23 20 18 17 16 15 15 14 13 11 12 13 15 17 19 20 22 23 24 24 25 25 25 26 26 26 26 27 28 29 30 31 31 31 31 31 31 31 31 30 29 28 27 28 29 30 30 30 29 28 27 26 25 24 23 23 22 22 22
34 34 33 32 31 30 29 28 27 25 23 21 19 17 16 15 15 14 13 12 11 10 11 13 15 17 18 20 22 24 25 26 26 25 25 24 23 24 25 27 29 30 30 30 29 30 30 30 30 29 28 27 27 27 28 28 29 28 27 26 25 24 23 22 22 21 21 22 22
33 33 32 31 30 29 28 27 26 26 25 24 22 21 19 17 16 14 13 12 11 10 9 10 12 13 14 16 18 19 21 22 22 22 22 22 22 22 23 24 26 27 28 29 29 29 29 28 28 27 27 27 27 27 27 27 27 26 26 25 24 23 23 23 22 22 23 24 25
32 31 31 30 29 28 27 27 26 25 25 24 24 23 22 20 18 15 13 11 9 8 8 8 9 9 10 11 12 13 14 16 17 18 19 20 21 21 22 22 24 25 26 27 28 28 28 27 27 27 27 27 27 27 27 27 26 26 26 25 25 25 25 25 24 25 26 27 27
30 30 29 28 28 27 27 26 25 25 24 24 24 23 22 20 18 16 14 12 10 9 9 8 8 8 8 8 9 10 11 12 14 15 16 17 18 19 20 20 22 24 25 26 26 26 27 26 26 26 26 26 26 26 26 26 26 26 25 25 25 25 26 26 26 27 28 28 28
29 28 28 27 26 26 26 25 25 24 24 24 23 22 21 20 19 17 16 14 13 11 11 10 9 9 8 8 8 10 11 12 12 13 14 15 16 17 17 18 19 21 23 24 25 25 26 26 26 26 25 25 25 25 25 25 25 25 25 25 25 25 25 25 26 27 27 27 26
28 27 27 26 25 25 25 24 24 24 24 23 23 22 21 20 19 18 16 14 13 13 12 11 10 10 9 9 9 10 11 12 12 13 14 14 15 16 16 17 18 19 21 23 24 24 25 25 25 25 25 25 25 24 24 24 24 24 24 25 25 25 25 25 25 25 25 24 23
28 27 26 25 25 24 24 24 24 24 24 23 22 21 20 19 18 16 15 14 13 14 13 13 12 11 11 11 11 11 12 14 14 15 15 15 16 17 17 18 18 19 20 21 22 23 23 24 24 24 24 24 24 24 24 24 24 24 24 25 25 25 25 24 24 23 23 22 22
28 26 25 25 24 24 23 23 23 23 23 22 21 20 18 17 16 15 14 13 14 14 14 13 13 13 13 13 13 13 13 14 16 17 17 17 18 19 20 19 19 19 19 20 20 21 22 22 22 23 23 24 24 24 24 24 24 24 25 25 24 24 24 23 23 22 22 21 21
28 27 26 24 24 23 22 22 22 22 21 20 19 18 17 16 15 15 14 13 13 13 13 13 14 13 13 13 13 13 14 15 16 18 18 19 19 20 21 21 20 19 19 19 20 20 21 21 22 22 23 24 25 25 25 25 25 25 25 24 24 23 23 22 22 21 20 20 19
27 27 26 25 24 23 22 21 21 20 19 18 17 16 15 15 14 13 12 12 12 12 13 13 13 13 12 12 13 13 14 15 16 18 19 20 20 21 21 21 20 19 19 19 19 20 20 21 22 22 24 25 26 27 26 26 26 25 24 24 23 23 22 21 21 20 19 18 17
25 25 25 24 23 22 21 20 19 18 17 16 16 15 14 13 12 11 11 10 10 11 11 12 12 12 12 12 13 13 14 14 16 18 19 20 20 20 20 19 19 18 18 17 18 18 19 20 21 22 24 25 26 26 27 26 26 25 24 24 23 23 22 21 20 19 18 17 17
22 22 22 22 22 22 21 19 18 17 16 15 14 14 13 12 11 10 10 10 10 10 10 10 10 11 11 11 12 13 13 14 15 16 18 18 19 18 18 17 17 16 15 15 16 16 17 18 19 20 22 23 24 25 26 26 25 25 24 24 24 23 22 21 19 18 18 17 17
Wind_Direction
221 221 222 222 222 221 220 220 220 219 218 218 218 217 215 211 207 199 187 175 172 171 171 172 173 173 173 173 174 176 176 175 175 174 175 176 177 180 182 183 187 192 197 200 202 204 206 206 206 206 207 207 207 207 207 207 206 205 205 204 204 204 204 204 203 202 202 204 206
219 219 220 221 221 219 218 217 216 216 216 216 216 213 209 205 201 195 184 174 172 171 171 171 171 171 172 173 175 177 177 177 176 176 176 177 178 180 181 183 187 193 197 200 202 204 206 208 207 207 207 208 207 207 207 207 207 205 204 204 204 205 205 205 205 205 206 207 208
220 218 217 219 220 217 213 210 210 210 211 211 210 206 201 197 194 189 180 171 169 168 168 167 167 168 170 172 175 177 178 178 179 179 179 179 180 181 183 186 191 195 197 199 201 205 209 211 209 208 207 207 207 206 206 207 206 205 204 204 205 205 206 207 208 208 208 208 209
223 219 217 218 219 215 209 205 204 204 204 203 201 197 193 189 186 180 172 166 163 163 164 165 166 167 169 171 174 177 180 181 183 184 184 183 183 184 187 191 195 198 198 198 201 207 213 214 212 209 208 208 207 206 206 206 205 204 204 205 205 206 207 209 210 210 209 209 210
224 222 220 220 218 212 205 202 200 198 196 194 191 188 185 181 178 172 165 161 159 159 162 165 166 167 169 172 174 177 181 184 188 191 192 190 188 189 192 196 200 201 200 201 204 210 215 216 213 210 209 209 208 207 207 206 205 204 204 205 207 208 210 211 211 211 211 211 211
224 225 224 222 216 208 202 200 198 194 190 187 183 179 177 174 169 162 158 159 160 160 162 165 167 169 172 175 178 180 183 187 191 194 193 192 190 191 194 198 202 203 203 205 209 213 215 215 212 211 210 209 209 208 208 207 205 203 203 205 208 210 211 212 212 212 212 211 211
225 226 225 221 211 202 198 197 195 191 187 183 179 175 173 172 165 158 157 159 161 163 165 167 171 174 178 182 185 187 188 189 192 192 191 190 190 191 194 197 201 203 205 208 211 213 214 213 211 210 209 209 208 208 208 207 205 203 203 205 208 210 211 212 212 212 212 211 210
226 226 222 216 205 197 194 194 192 189 186 184 180 177 175 172 166 159 157 159 162 165 168 172 176 180 182 185 188 190 190 190 191 190 190 190 191 192 194 197 200 203 206 209 211 212 212 212 211 209 208 207 206 206 206 206 205 204 204 205 208 210 211 211 211 211 211 210 210
225 224 218 209 199 193 191 191 190 189 187 185 183 180 178 175 171 165 161 161 165 169 172 176 179 182 184 186 188 190 190 190 190 190 191 191 192 194 196 200 202 204 206 208 209 210 210 209 208 208 207 206 205 204 204 204 203 203 203 205 206 208 208 209 210 210 210 209 208
225 222 215 207 195 189 188 189 189 188 186 184 184 183 181 180 177 173 169 168 171 174 177 179 182 183 184 185 187 188 189 189 190 191 192 193 194 196 198 201 205 206 206 206 207 208 207 206 205 205 205 205 203 203 202 202 201 201 202 204 205 205 205 206 207 208 208 207 206
229 224 214 202 190 186 186 187 187 186 184 183 183 184 183 182 181 179 177 176 176 178 181 184 185 186 186 187 187 187 187 188 189 190 191 194 196 198 200 202 205 207 207 206 206 206 205 203 202 202 202 202 201 201 200 199 199 199 200 202 203 203 203 203 205 205 205 204 204
231 224 210 196 187 184 185 186 185 183 181 180 181 182 183 183 182 180 179 179 180 182 185 188 189 190 191 191 191 190 189 189 189 190 192 194 196 198 201 203 205 206 206 206 206 205 204 202 201 200 199 199 199 198 198 197 196 197 198 200 201 201 201 201 201 201 201 201 201
229 219 206 192 185 184 185 185 184 182 178 177 178 180 182 183 182 181 179 179 180 182 186 189 191 193 194 194 195 194 194 193 193 194 195 195 196 197 199 201 203 204 205 205 206 205 203 201 200 199 198 197 197 197 197 196 195 195 197 198 199 199 199 199 199 198 198 198 197
223 211 197 188 184 183 183 183 182 180 177 175 176 178 180 182 182 182 180 179 180 182 184 187 190 191 193 194 195 196 196 196 196 195 195 196 196 196 196 197 199 200 202 203 205 204 203 202 201 200 198 197 196 196 196 196 195 196 197 198 198 198 198 198 197 197 196 195 195
212 200 189 185 183 181 179 179 179 178 176 175 176 177 179 180 182 183 182 181 181 182 184 185 186 188 190 191 192 193 194 194 194 193 193 194 195 195 195 195 195 196 197 199 201 203 203 203 202 201 200 198 197 197 196 196 196 197 199 199 198 197 197 196 196 196 195 195 195
198 187 181 181 180 178 176 175 176 176 175 175 176 177 179 180 182 184 184 183 183 183 184 184 184 185 186 187 188 188 189 190 190 191 192 193 194 194 194 194 194 194 194 196 197 199 201 203 203 203 202 200 199 197 196 195 196 197 198 198 197 196 195 195 196 196 196 196 196
180 172 169 171 174 175 176 176 176 175 175 176 177 178 180 181 182 183 183 183 183 183 183 183 184 184 184 185 185 185 185 186 187 188 190 191 192 193 194 194 194 194 194 194 195 196 198 200 202 202 202 201 199 198 196 195 195 196 196 196 194 193 193 194 196 197 197 198 199
167 166 166 165 167 171 175 178 178 177 177 178 179 181 182 183 183 183 183 183 183 182 181 182 183 184 185 185 185 184 184 185 186 188 189 190 191 192 193 193 194 194 194 195 195 195 196 196 198 199 199 199 198 196 194 193 193 194 194 194 194 194 195 196 198 199 199 200 201
166 170 170 164 162 165 172 177 178 178 179 181 183 184 185 186 186 185 184 184 184 183 182 181 182 184 185 186 185 185 186 187 187 188 189 190 190 191 191 192 193 194 194 194 194 194 194 194 194 194 194 193 193 191 190 189 190 191 193 194 195 197 199 202 205 206 206 204 203
168 172 172 167 162 162 166 171 174 175 176 179 182 185 187 188 188 187 185 184 185 184 183 182 182 184 186 187 187 188 188 189 189 189 189 189 189 189 190 191 191 192 193 193 193 193 192 192 191 190 190 188 187 187 187 189 192 194 195 197 199 201 204 208 212 214 214 212 209
180 181 180 176 172 167 164 166 170 171 171 172 175 180 184 187 187 187 186 186 185 184 183 183 183 184 186 188 189 189 190 190 189 189 189 188 188 188 189 189 189 190 191 191 191 190 190 189 188 188 187 187 187 188 191 195 198 198 198 198 199 201 204 209 213 216 217 217 216
135 161 177 184 184 179 172 167 168 169 170 171 172 173 176 179 181 183 184 184 183 182 182 182 182 183 184 186 188 189 190 189 188 187 187 186 185 186 186 186 186 187 187 187 187 187 187 187 186 186 187 187 189 193 196 199 199 197 195 195 197 200 203 207 211 214 216 217 218
79 96 121 142 168 178 178 175 173 174 178 182 180 173 169 170 173 176 177 178 177 178 179 179 180 180 182 184 186 187 187 186 185 184 184 183 182 182 182 183 183 184 185 186 186 186 187 187 188 190 191 192 193 196 198 200 198 195 193 193 195 199 203 206 208 209 211 213 215
70 76 82 90 108 125 139 148 154 164 176 185 186 180 172 169 171 173 175 175 176 176 177 178 178 179 180 181 183 184 184 184 183 184 185 186 186 187 187 187 187 187 188 188 189 189 190 191 192 195 197 198 198 198 199 200 200 197 195 193 194 196 199 202 203 205 206 208 210
64 66 69 73 80 91 101 109 115 121 131 147 162 170 173 173 176 178 180 181 183 183 183 183 182 183 183 183 183 184 184 185 186 188 191 194 196 196 197 196 196 196 195 195 195 195 196 196 196 197 199 200 200 200 201 202 203 201 197 193 193 193 194 196 199 201 203 206 208
59 61 62 64 68 73 79 85 90 96 103 112 124 136 149 161 171 177 181 184 187 191 193 193 193 192 192 192 191 191 190 190 192 193 196 198 199 200 200 200 201 202 202 203 203 203 203 201 199 199 199 199 199 199 199 201 204 203 199 194 193 192 191 192 194 197 201 204 207
54 55 57 59 61 63 65 70 74 79 84 89 95 103 116 133 148 159 169 177 184 191 194 195 195 195 196 196 197 197 196 196 197 199 200 201 201 201 201 201 202 204 205 206 208 208 208 206 204 202 200 198 197 196 195 195 198 199 197 194 193 192 191 191 192 194 197 201 204
51 53 55 56 57 58 61 64 67 68 69 71 74 81 93 107 119 130 143 157 170 178 182 184 187 189 190 191 193 195 197 198 200 203 204 205 205 205 204 205 205 206 206 206 207 208 209 209 208 206 204 199 195 192 191 192 193 194 193 192 191 191 191 191 192 193 195 197 200
49 52 54 55 55 56 58 60 63 65 66 67 68 71 77 84 91 98 109 124 140 153 162 170 176 179 181 182 187 191 194 197 199 202 204 206 206 206 206 206 207 208 208 207 206 206 206 207 208 207 205 201 195 191 190 189 189 189 189 189 189 190 190 191 191 192 193 194 194
47 49 51 52 53 55 56 58 61 63 65 67 68 69 69 70 72 75 79 87 99 116 138 156 166 170 173 176 182 186 190 194 196 198 201 203 202 201 201 202 204 206 207 207 206 204 203 203 204 204 203 201 197 193 190 189 189 189 189 189 191 192 194 195 196 196 194 193 189
45 47 48 50 51 52 54 56 58 61 63 64 66 67 68 68 66 65 65 68 74 89 112 135 148 157 164 170 174 179 184 188 191 193 196 197 198 198 199 200 203 205 207 207 206 204 203 201 200 200 200 200 200 198 196 195 195 195 195 195 197 199 201 203 202 199 194 189 182
43 45 46 47 48 49 51 53 54 56 58 61 63 65 67 68 69 68 68 68 70 77 90 106 119 131 143 154 163 168 172 176 181 186 190 192 193 196 199 203 208 211 211 208 205 202 200 198 196 196 196 198 199 200 201 200 199 198 198 198 199 200 200 199 195 190 185 181 176
42 44 45 46 47 48 50 51 52 54 56 59 61 63 65 67 68 70 71 73 76 79 82 86 91 100 111 126 140 148 154 160 167 174 180 185 187 188 191 197 205 210 212 208 202 197 194 192 191 191 192 194 196 197 197 196 194 192 190 190 190 191 190 188 184 180 177 174 173
39 41 43 45 46 47 48 50 51 52 54 56 57 59 61 63 64 66 68 71 76 80 83 85 87 92 101 114 126 133 139 144 149 155 163 169 172 173 174 177 185 193 198 198 194 190 187 186 186 187 189 190 191 191 189 187 184 182 179 178 177 178 178 178 176 174 173 172 171
37 39 40 42 44 45 46 47 49 50 50 52 52 54 56 58 60 63 65 67 72 76 80 84 88 94 101 111 121 128 131 132 134 138 143 148 152 153 152 155 162 170 177 180 180 180 180 180 180 182 185 186 185 183 181 179 176 173 171 170 168 169 170 170 171 171 171 172 171
35 37 38 40 41 43 44 45 45 46 47 48 48 49 50 53 56 58 60 62 67 72 77 81 86 91 96 102 109 117 123 127 129 131 134 137 138 137 136 139 145 153 160 164 167 169 170 172 175 177 179 179 177 175 174 172 169 167 165 164 163 164 165 167 168 169 170 170 171
34 35 37 38 39 41 42 43 44 44 45 46 46 46 47 48 50 50 51 55 62 70 75 80 83 87 90 95 100 108 117 125 129 129 130 132 132 131 130 132 136 142 149 154 157 160 163 166 170 174 175 173 170 168 166 164 161 160 159 158 159 161 164 165 166 167 167 168 168
32 33 35 36 38 39 40 42 43 44 44 44 44 44 45 46 47 47 47 50 60 69 76 80 83 86 89 94 99 106 114 122 127 129 129 130 131 131 130 130 133 138 144 149 153 156 159 163 166 169 170 167 164 162 160 157 155 154 154 155 157 159 161 162 163 163 163 163 164
31 32 32 33 35 36 38 40 42 43 43 43 42 42 43 45 47 48 48 52 61 71 79 84 87 91 95 100 102 105 110 118 125 129 130 130 131 132 132 130 132 138 144 148 151 154 157 159 161 163 163 161 159 157 156 153 151 151 152 153 154 156 158 159 158 158 158 158 160
30 31 31 31 31 32 34 37 39 40 40 40 40 41 42 44 47 48 51 56 63 71 80 87 92 98 104 107 106 106 109 115 122 128 131 132 134 135 134 133 133 137 142 146 149 152 153 155 156 158 158 157 156 155 154 151 149 149 150 151 152 153 154 155 154 154 153 154 156
27 29 31 31 30 29 29 30 32 33 34 36 38 39 40 41 43 46 51 57 64 71 78 86 94 102 108 111 112 112 112 114 120 126 131 134 136 136 136 134 134 135 138 142 145 147 149 150 152 154 155 155 155 154 153 151 148 147 149 151 152 152 152 152 152 152 152 152 154